Weather History for Yakima, WA

Change the Weather History Date:

Friday, January 17, 2014

  Actual Average Record
Temperature  
Mean Temperature 31 °F 31 °F  
Max Temperature 43 °F 39 °F 61 °F (2011)
Min Temperature 18 °F 24 °F -18 °F (1950)
Degree Days  
Heating Degree Days 34 34  
Month to date heating degree days 488 602  
Since 1 July heating degree days 3059 3265  
Cooling Degree Days 0 0  
Month to date cooling degree days 0 0  
Year to date cooling degree days 0 0  
Moisture  
Dew Point 24 °F    
Average Humidity 79    
Maximum Humidity 92    
Minimum Humidity 65    
Precipitation  
Precipitation 0.00 in 0.04 in 0.36 in (1999)
Month to date precipitation 0.10 0.69  
Year to date precipitation 0.10 0.69  
Snow  
Snow 0.00 in 0.10 in 2.10 in (1955)
Month to date snowfall 0.5 3.5  
Year to date snowfall 0.5 3.5  
Since 1 July snowfall 0.5 16.5  
Snow Depth 0.00 in    
Sea Level Pressure  
Sea Level Pressure 30.43 in    
Wind  
Wind Speed 4 mph (WSW)    
Max Wind Speed 9 mph    
Max Gust Speed 10 mph    
Visibility 6 miles    
Events      
T = Trace of Precipitation, MM = Missing Value Source: NWS Daily Summary

Daily Weather History Graph

Daily Weather History Graph

Search for Another Location

Airport:

Trip Planner

Search our weather history database for the weather conditions in past years. The results will help you decide how hot, cold, wet, or windy it might be!

Date:

Astronomy

Jan. 17, 2014 Rise Set
Actual Time 7:40 AM PST 4:44 PM PST
Civil Twilight 7:06 AM PST 5:18 PM PST
Nautical Twilight 6:29 AM PST 5:55 PM PST
Astronomical Twilight 5:53 AM PST 6:31 PM PST
Moon 6:45 PM PST (1/17) 8:03 AM PST (1/17)
Length of Visible Light 10h 11m
Length of Day
9h 03m
Full, 98% of the Moon is Illuminated
Jan 17
Full
Jan 23
Last Quarter
Jan 30
New
Feb 6
First Quarter
Feb 14
Full

Hourly Weather History & Observations

Time (PST) Temp. Windchill Dew Point Humidity Pressure Visibility Wind Dir Wind Speed Gust Speed Precip Events Conditions
12:53 AM 23.0 °F 18.4 °F 19.0 °F 85% 30.44 in 7.0 mi West 3.5 mph - N/A   Clear
1:53 AM 21.9 °F - 18.0 °F 85% 30.45 in 5.0 mi Calm Calm - N/A   Clear
2:53 AM 19.9 °F - 16.0 °F 85% 30.44 in 7.0 mi Calm Calm - N/A   Clear
3:53 AM 19.0 °F 10.0 °F 16.0 °F 88% 30.43 in 7.0 mi West 6.9 mph - N/A   Clear
4:53 AM 19.9 °F 14.9 °F 16.0 °F 85% 30.43 in 5.0 mi NW 3.5 mph - N/A   Clear
5:53 AM 18.0 °F 9.8 °F 14.0 °F 84% 30.45 in 7.0 mi West 5.8 mph - N/A   Clear
6:53 AM 19.9 °F - 17.1 °F 89% 30.44 in 6.0 mi Calm Calm - N/A   Clear
7:53 AM 19.0 °F 13.9 °F 15.1 °F 85% 30.45 in 5.0 mi ESE 3.5 mph - N/A   Clear
8:29 AM 19.9 °F - 15.1 °F 81% 30.41 in 4.0 mi Calm Calm - N/A   Haze
8:53 AM 21.9 °F - 18.0 °F 85% 30.46 in 5.0 mi Calm Calm - N/A   Partly Cloudy
9:53 AM 28.0 °F - 24.1 °F 85% 30.46 in 4.0 mi Calm Calm - N/A   Clear
10:53 AM 30.9 °F - 26.1 °F 82% 30.45 in 5.0 mi Calm Calm - N/A   Haze
11:53 AM 33.1 °F 28.7 °F 27.0 °F 78% 30.45 in 5.0 mi ESE 4.6 mph - N/A   Haze
12:53 PM 37.9 °F - 28.9 °F 70% 30.43 in 7.0 mi Calm Calm - N/A   Clear
1:53 PM 39.9 °F 37.8 °F 30.9 °F 70% 30.42 in 8.0 mi SW 3.5 mph - N/A   Clear
2:45 PM 42.1 °F 40.2 °F 32.0 °F 67% 30.38 in 8.0 mi East 3.5 mph - N/A   Mostly Cloudy
2:53 PM 41.0 °F 36.4 °F 30.9 °F 67% 30.41 in 7.0 mi SE 6.9 mph - N/A   Mostly Cloudy
3:09 PM 39.9 °F 35.8 °F 30.9 °F 70% 30.38 in 7.0 mi ESE 5.8 mph - N/A   Scattered Clouds
3:53 PM 39.0 °F 36.8 °F 30.9 °F 73% 30.43 in 6.0 mi East 3.5 mph - N/A   Haze
4:53 PM 36.0 °F - 30.0 °F 79% 30.44 in 5.0 mi Calm Calm - N/A   Haze
5:53 PM 28.0 °F 22.8 °F 25.0 °F 88% 30.44 in 5.0 mi WSW 4.6 mph - N/A   Clear
6:42 PM 28.9 °F 22.8 °F 26.1 °F 89% 30.39 in 4.0 mi West 5.8 mph - N/A   Mostly Cloudy
6:53 PM 28.9 °F 21.9 °F 26.1 °F 89% 30.44 in 5.0 mi West 6.9 mph - N/A   Overcast
7:03 PM 30.9 °F 25.2 °F 27.0 °F 85% 30.39 in 5.0 mi West 5.8 mph - N/A   Overcast
7:53 PM 28.9 °F 21.9 °F 26.1 °F 89% 30.43 in 4.0 mi West 6.9 mph - N/A   Overcast
8:53 PM 26.1 °F 20.5 °F 23.0 °F 88% 30.43 in 4.0 mi West 4.6 mph - N/A   Scattered Clouds
9:53 PM 28.0 °F 21.7 °F 25.0 °F 88% 30.44 in 4.0 mi West 5.8 mph - N/A   Mostly Cloudy
10:53 PM 30.9 °F 25.2 °F 28.0 °F 89% 30.43 in 5.0 mi West 5.8 mph - N/A   Overcast
11:11 PM 30.9 °F 27.5 °F 28.0 °F 89% 30.40 in 5.0 mi West 3.5 mph - N/A   Overcast
11:53 PM 33.1 °F 26.9 °F 30.0 °F 89% 30.44 in 7.0 mi NW 6.9 mph - N/A   Overcast